Simultaneous Nadir Overpasses (SNOs) Predictions

Prediction of SNOs between METOP-B and NOAA-19 Satellite Orbit:

Table of predicted SNOs for the next 14.0 days since TLE Epoch: 7/1/2016
Index Date (METOP-B) Time (METOP-B) Lat,Lon (METOP-B) SZA (METOP-B ) Date (NOAA-19) Time (NOAA-19) Lat,Lon (NOAA-19) SZA (NOAA-19 ) Distance(km) Time Diff (sec)
1 07/06/2016 18:24:05 -76.22, 85.10 126.44 07/06/2016 18:22:51 -76.21, 84.65 126.44 11.96 74
2 07/06/2016 19:14:47 76.14,-107.85 53.49 07/06/2016 19:13:56 76.12,-107.78 53.47 3.04 51
3 07/06/2016 20:05:29 -76.12, 59.39 126.54 07/06/2016 20:04:51 -76.12, 59.47 126.53 2.53 38
4 07/06/2016 20:56:09 76.13,-133.24 53.48 07/06/2016 20:55:58 76.12,-133.29 53.48 1.51 11
5 07/06/2016 21:46:51 -76.10, 33.99 126.54 07/06/2016 21:46:53 -76.12, 33.97 126.52 2.54 2
6
